| time (UTC) | temp F | wind direction | speed knots | gust knots | rain 1hr in | rain 24hr in | rain mn in | humidity % | barometer mb |
| 20260831124538 | 75 | 0 | 10.4 | 16.5 | 0.00 | 0.08 | 0.01 | 64 | 1008.6 |
| 20260831123517 | 77 | 0 | 8.7 | 18.2 | 0.00 | 0.08 | 0.01 | 66 | 1008.5 |
| 20260831122517 | 76 | 0 | 9.6 | 15.6 | 0.00 | 0.08 | 0.01 | 64 | 1008.7 |
| 20260831121538 | 76 | 0 | 10.4 | 16.5 | 0.00 | 0.08 | 0.01 | 68 | 1008.8 |
| 20260831120517 | 77 | 0 | 8.7 | 13.9 | 0.00 | 0.08 | 0.01 | 70 | 1008.8 |
| 20260831115538 | 75 | 0 | 10.4 | 20.0 | 0.00 | 0.08 | 0.01 | 71 | 1008.9 |
| 20260831114518 | 75 | 0 | 11.3 | 17.4 | 0.00 | 0.08 | 0.01 | 72 | 1009.0 |
| 20260831113517 | 73 | 0 | 9.6 | 14.8 | 0.00 | 0.08 | 0.01 | 79 | 1008.9 |
| 20260831112518 | 71 | 0 | 9.6 | 15.6 | 0.00 | 0.08 | 0.01 | 74 | 1009.0 |
| 20260831111518 | 74 | 0 | 11.3 | 20.0 | 0.00 | 0.08 | 0.01 | 71 | 1009.1 |
| 20260831110518 | 74 | 0 | 10.4 | 15.6 | 0.01 | 0.08 | 0.01 | 74 | 1009.0 |
| 20260831105517 | 75 | 0 | 7.0 | 12.2 | 0.01 | 0.08 | 0.01 | 73 | 1009.0 |
| 20260831104517 | 74 | 0 | 8.7 | 16.5 | 0.01 | 0.08 | 0.01 | 73 | 1009.1 |
| 20260831103517 | 74 | 0 | 9.6 | 17.4 | 0.01 | 0.08 | 0.01 | 72 | 1009.2 |
| 20260831102517 | 74 | 0 | 6.1 | 12.2 | 0.01 | 0.08 | 0.01 | 73 | 1009.3 |
| 20260831101517 | 72 | 0 | 7.0 | 12.2 | 0.01 | 0.08 | 0.01 | 75 | 1009.3 |
| 20260831100537 | 73 | 0 | 8.7 | 15.6 | 0.00 | 0.07 | 0.00 | 75 | 1009.4 |
| 20260831095517 | 73 | 0 | 12.2 | 15.6 | 0.00 | 0.07 | 0.00 | 77 | 1009.4 |
| 20260831094557 | 74 | 0 | 7.8 | 13.9 | 0.00 | 0.07 | 0.00 | 78 | 1009.5 |
| 20260831093517 | 72 | 0 | 7.0 | 12.2 | 0.00 | 0.07 | 0.00 | 80 | 1009.5 |
| 20260831092517 | 72 | 0 | 5.2 | 11.3 | 0.00 | 0.07 | 0.00 | 82 | 1009.5 |
| 20260831091517 | 71 | 0 | 6.1 | 12.2 | 0.00 | 0.07 | 0.00 | 81 | 1009.5 |
| 20260831090538 | 69 | 0 | 5.2 | 9.6 | 0.00 | 0.07 | 0.00 | 82 | 1009.5 |
| 20260831085517 | 69 | 0 | 5.2 | 9.6 | 0.00 | 0.07 | 0.00 | 86 | 1009.6 |
| 20260831084517 | 67 | 0 | 3.5 | 7.8 | 0.00 | 0.07 | 0.00 | 87 | 1009.6 |
| 20260831083517 | 66 | 0 | 3.5 | 8.7 | 0.00 | 0.07 | 0.00 | 88 | 1009.6 |
| 20260831082537 | 65 | 0 | 3.5 | 7.8 | 0.00 | 0.07 | 0.00 | 89 | 1009.4 |
| 20260831081517 | 65 | 0 | 5.2 | 11.3 | 0.00 | 0.07 | 0.00 | 88 | 1009.6 |
| 20260831080517 | 65 | 0 | 5.2 | 12.2 | 0.00 | 0.07 | 0.00 | 88 | 1009.6 |
| 20260831075517 | 66 | 0 | 4.3 | 8.7 | 0.00 | 0.07 | 0.00 | 87 | 1009.6 |
| 20260831074517 | 65 | 180 | 3.5 | 7.8 | 0.00 | 0.07 | 0.00 | 92 | 1009.6 |
| 20260831073517 | 64 | 180 | 3.5 | 8.7 | 0.00 | 0.07 | 0.00 | 93 | 1009.5 |
| 20260831072517 | 63 | 180 | 3.5 | 8.7 | 0.00 | 0.07 | 0.00 | 95 | 1009.5 |
| 20260831071537 | 63 | 180 | 4.3 | 7.8 | 0.00 | 0.07 | 0.00 | 95 | 1009.5 |
| 20260831070537 | 63 | 180 | 4.3 | 8.7 | 0.00 | 0.07 | 0.00 | 96 | 1009.6 |
| 20260831065517 | 63 | 180 | 4.3 | 7.8 | 0.00 | 0.07 | 0.00 | 97 | 1009.6 |
| 20260831064517 | 62 | 158 | 3.5 | 5.2 | 0.00 | 0.07 | 0.00 | 99 | 1009.4 |
| 20260831063537 | 60 | 158 | 1.7 | 4.3 | 0.00 | 0.07 | 0.00 | 98 | 1009.5 |
| 20260831062537 | 60 | 158 | 2.6 | 5.2 | 0.00 | 0.07 | 0.00 | 98 | 1009.5 |
| 20260831061517 | 60 | 180 | 2.6 | 5.2 | 0.00 | 0.07 | 0.00 | 99 | 1009.7 |
| 20260831060557 | 60 | 158 | 2.6 | 5.2 | 0.00 | 0.07 | 0.00 | 99 | 1009.7 |
| 20260831055517 | 59 | 158 | 2.6 | 5.2 | 0.00 | 0.07 | 0.00 | 99 | 1009.6 |
| 20260831054537 | 59 | 135 | 0.9 | 1.7 | 0.00 | 0.07 | 0.00 | 99 | 1009.5 |
| 20260831053517 | 58 | 135 | 0.9 | 1.7 | 0.00 | 0.07 | 0.00 | 99 | 1009.5 |
| 20260831052517 | 58 | 135 | 0.9 | 2.6 | 0.00 | 0.07 | 0.00 | 99 | 1009.4 |
| 20260831051517 | 58 | 158 | 1.7 | 3.5 | 0.00 | 0.07 | 0.00 | 99 | 1009.6 |
| 20260831050517 | 58 | 158 | 0.9 | 3.5 | 0.00 | 0.07 | 0.00 | 99 | 1009.8 |
| 20260831045537 | 58 | 158 | 0.9 | 1.7 | 0.00 | 0.07 | 0.00 | 99 | 1010.0 |
| 20260831044517 | 58 | 158 | 0.9 | 3.5 | 0.00 | 0.07 | 0.00 | 99 | 1009.9 |
| 20260831043517 | 59 | 158 | 1.7 | 4.3 | 0.00 | 0.07 | 0.00 | 99 | 1009.7 |
| 20260831042516 | 59 | 158 | 1.7 | 3.5 | 0.00 | 0.07 | 0.00 | 99 | 1009.6 |
| 20260831041537 | 59 | 158 | 1.7 | 3.5 | 0.00 | 0.07 | 0.00 | 99 | 1009.8 |
| 20260831040517 | 59 | 180 | 0.9 | 3.5 | 0.00 | 0.07 | 0.00 | 99 | 1009.8 |
| 20260831035516 | 59 | 180 | 0.9 | 1.7 | 0.00 | 0.07 | 0.00 | 99 | 1010.0 |
| 20260831034516 | 59 | 180 | 0.9 | 2.6 | 0.00 | 0.07 | 0.00 | 99 | 1010.2 |
| 20260831033517 | 59 | 158 | 0.9 | 4.3 | 0.00 | 0.07 | 0.00 | 99 | 1010.4 |
| 20260831032517 | 59 | 158 | 1.7 | 2.6 | 0.00 | 0.07 | 0.00 | 99 | 1010.3 |
| 20260831031516 | 59 | 158 | 1.7 | 4.3 | 0.00 | 0.07 | 0.00 | 99 | 1010.5 |
| 20260831030517 | 59 | 158 | 2.6 | 4.3 | 0.00 | 0.07 | 0.00 | 99 | 1010.5 |
| 20260831025536 | 59 | 158 | 0.9 | 1.7 | 0.00 | 0.07 | 0.00 | 99 | 1010.7 |
| 20260831024516 | 60 | 180 | 1.7 | 4.3 | 0.00 | 0.07 | 0.00 | 99 | 1010.9 |
| 20260831023537 | 59 | 180 | 0.9 | 2.6 | 0.00 | 0.07 | 0.00 | 99 | 1011.0 |
| 20260831022537 | 59 | 180 | 2.6 | 5.2 | 0.00 | 0.07 | 0.00 | 99 | 1011.1 |
| 20260831021517 | 60 | 180 | 2.6 | 4.3 | 0.00 | 0.07 | 0.00 | 99 | 1011.0 |
| 20260831020537 | 60 | 180 | 0.9 | 3.5 | 0.00 | 0.07 | 0.00 | 99 | 1010.9 |
| 20260831015516 | 60 | 180 | 0.9 | 1.7 | 0.00 | 0.07 | 0.00 | 99 | 1010.8 |
| 20260831014516 | 60 | 180 | 0.9 | 3.5 | 0.00 | 0.07 | 0.00 | 99 | 1010.8 |
| 20260831013519 | 60 | 0.0 | 1.7 | 0.00 | 0.07 | 0.00 | 99 | 1010.8 | |
| 20260831012518 | 61 | 180 | 0.9 | 1.7 | 0.00 | 0.07 | 0.00 | 99 | 1010.8 |
| 20260831011518 | 61 | 180 | 0.9 | 1.7 | 0.00 | 0.07 | 0.00 | 99 | 1010.9 |
| 20260831010518 | 61 | 180 | 0.9 | 1.7 | 0.00 | 0.07 | 0.00 | 99 | 1011.1 |
| 20260831005518 | 61 | 180 | 0.9 | 3.5 | 0.00 | 0.07 | 0.00 | 99 | 1011.2 |
| 20260831004518 | 61 | 180 | 1.7 | 3.5 | 0.00 | 0.07 | 0.00 | 99 | 1011.4 |
| 20260831003518 | 61 | 180 | 0.9 | 2.6 | 0.00 | 0.07 | 0.00 | 99 | 1011.5 |
| 20260831002518 | 62 | 180 | 0.9 | 1.7 | 0.00 | 0.07 | 0.00 | 99 | 1011.5 |
| 20260831001518 | 62 | 180 | 1.7 | 4.3 | 0.00 | 0.07 | 0.00 | 99 | 1011.7 |
| 20260831000538 | 62 | 203 | 0.9 | 3.5 | 0.00 | 0.07 | 0.00 | 98 | 1011.7 |
| 20260830235518 | 62 | 203 | 0.9 | 2.6 | 0.00 | 0.07 | 0.00 | 99 | 1011.7 |
| 20260830234517 | 62 | 225 | 0.9 | 2.6 | 0.00 | 0.07 | 0.00 | 99 | 1011.7 |
| 20260830233518 | 62 | 225 | 0.9 | 2.6 | 0.00 | 0.07 | 0.00 | 99 | 1011.7 |
| 20260830232518 | 62 | 225 | 0.9 | 2.6 | 0.00 | 0.07 | 0.00 | 98 | 1011.8 |
| 20260830231518 | 62 | 248 | 0.9 | 2.6 | 0.00 | 0.07 | 0.00 | 98 | 1011.8 |
| 20260830230518 | 62 | 0.0 | 0.9 | 0.00 | 0.07 | 0.00 | 98 | 1011.8 | |
| 20260830225518 | 62 | 0.0 | 1.7 | 0.00 | 0.07 | 0.00 | 98 | 1011.9 | |
| 20260830224518 | 62 | 0.0 | 0.0 | 0.00 | 0.07 | 0.00 | 98 | 1011.9 | |
| 20260830223518 | 62 | 0.0 | 0.9 | 0.00 | 0.07 | 0.00 | 98 | 1012.0 | |
| 20260830222538 | 62 | 0.0 | 1.7 | 0.00 | 0.07 | 0.00 | 98 | 1011.9 | |
| 20260830221518 | 62 | 248 | 0.9 | 1.7 | 0.00 | 0.07 | 0.00 | 98 | 1011.9 |
| 20260830220518 | 62 | 248 | 2.6 | 4.3 | 0.00 | 0.07 | 0.00 | 98 | 1011.9 |
| 20260830215518 | 62 | 225 | 2.6 | 4.3 | 0.00 | 0.07 | 0.07 | 98 | 1012.1 |
| 20260830214518 | 62 | 225 | 3.5 | 5.2 | 0.00 | 0.07 | 0.07 | 98 | 1012.2 |
| 20260830213518 | 62 | 203 | 1.7 | 2.6 | 0.00 | 0.07 | 0.07 | 98 | 1012.2 |
| 20260830212518 | 62 | 180 | 1.7 | 2.6 | 0.00 | 0.07 | 0.07 | 98 | 1012.1 |
| 20260830211517 | 62 | 0.0 | 1.7 | 0.01 | 0.07 | 0.07 | 98 | 1011.9 | |
| 20260830210518 | 62 | 180 | 0.9 | 1.7 | 0.01 | 0.07 | 0.07 | 98 | 1011.8 |
| 20260830205518 | 62 | 203 | 0.9 | 2.6 | 0.01 | 0.07 | 0.07 | 98 | 1012.0 |
| 20260830204518 | 62 | 203 | 1.7 | 3.5 | 0.01 | 0.07 | 0.07 | 98 | 1012.0 |
| 20260830203518 | 63 | 225 | 2.6 | 5.2 | 0.01 | 0.07 | 0.07 | 98 | 1012.0 |
| 20260830202538 | 63 | 225 | 3.5 | 7.8 | 0.01 | 0.07 | 0.07 | 98 | 1012.0 |
| 20260830201518 | 63 | 225 | 3.5 | 7.0 | 0.00 | 0.06 | 0.06 | 98 | 1012.0 |
| 20260830200518 | 63 | 225 | 3.5 | 7.0 | 0.00 | 0.06 | 0.06 | 98 | 1012.0 |
| 20260830195518 | 63 | 225 | 3.5 | 7.8 | 0.00 | 0.06 | 0.06 | 98 | 1012.0 |
| 20260830194518 | 63 | 225 | 4.3 | 8.7 | 0.00 | 0.06 | 0.06 | 98 | 1012.1 |
| 20260830193517 | 63 | 0 | 5.2 | 8.7 | 0.00 | 0.06 | 0.06 | 98 | 1012.0 |
| 20260830192517 | 63 | 0 | 4.3 | 7.0 | 0.01 | 0.06 | 0.06 | 98 | 1012.1 |
| 20260830191518 | 63 | 248 | 4.3 | 7.0 | 0.01 | 0.06 | 0.06 | 98 | 1012.1 |
| 20260830190518 | 63 | 0 | 4.3 | 7.8 | 0.02 | 0.06 | 0.06 | 98 | 1012.1 |
| 20260830185517 | 62 | 0 | 4.3 | 7.0 | 0.02 | 0.06 | 0.06 | 98 | 1011.9 |
| 20260830184518 | 62 | 0 | 6.1 | 9.6 | 0.02 | 0.06 | 0.06 | 97 | 1011.8 |
| 20260830183537 | 62 | 0 | 7.8 | 11.3 | 0.02 | 0.06 | 0.06 | 97 | 1011.8 |
| 20260830182517 | 62 | 0 | 5.2 | 8.7 | 0.03 | 0.06 | 0.06 | 97 | 1011.6 |
| 20260830181517 | 62 | 0 | 7.8 | 10.4 | 0.04 | 0.06 | 0.06 | 97 | 1011.4 |
| 20260830180517 | 63 | 0 | 8.7 | 13.9 | 0.03 | 0.05 | 0.05 | 97 | 1011.3 |
| 20260830175518 | 63 | 0 | 7.0 | 11.3 | 0.04 | 0.05 | 0.05 | 97 | 1011.3 |
| 20260830174518 | 63 | 0 | 7.0 | 9.6 | 0.04 | 0.05 | 0.05 | 97 | 1011.1 |
| 20260830173518 | 63 | 0 | 10.4 | 13.0 | 0.04 | 0.05 | 0.05 | 97 | 1011.1 |
| 20260830172537 | 63 | 0 | 10.4 | 13.0 | 0.02 | 0.02 | 0.02 | 96 | 1011.1 |
| 20260830171518 | 63 | 0 | 9.6 | 12.2 | 0.02 | 0.02 | 0.02 | 96 | 1011.1 |
| 20260830170517 | 64 | 0 | 11.3 | 16.5 | 0.02 | 0.02 | 0.02 | 96 | 1011.0 |
| 20260830165517 | 64 | 0 | 8.7 | 12.2 | 0.01 | 0.01 | 0.01 | 96 | 1011.0 |
| 20260830164538 | 64 | 0 | 8.7 | 12.2 | 0.01 | 0.01 | 0.01 | 96 | 1010.8 |
| 20260830163517 | 65 | 0 | 8.7 | 12.2 | 0.01 | 0.01 | 0.01 | 96 | 1010.8 |
| 20260830162517 | 64 | 0 | 9.6 | 12.2 | 0.01 | 0.01 | 0.01 | 96 | 1010.6 |
| 20260830161517 | 65 | 0 | 8.7 | 12.2 | 0.00 | 0.00 | 0.00 | 95 | 1010.6 |
| 20260830160517 | 65 | 0 | 9.6 | 12.2 | 0.00 | 0.00 | 0.00 | 96 | 1010.5 |
| 20260830155517 | 65 | 0 | 10.4 | 14.8 | 0.00 | 0.00 | 0.00 | 95 | 1010.5 |
| 20260830154517 | 64 | 0 | 12.2 | 15.6 | 0.00 | 0.00 | 0.00 | 94 | 1010.5 |
| 20260830153537 | 65 | 0 | 14.8 | 18.2 | 0.00 | 0.00 | 0.00 | 93 | 1010.4 |
| 20260830152517 | 65 | 0 | 14.8 | 20.9 | 0.00 | 0.00 | 0.00 | 90 | 1010.3 |
| 20260830151517 | 68 | 0 | 19.1 | 24.3 | 0.00 | 0.00 | 0.00 | 84 | 1010.4 |
| 20260830150517 | 69 | 0 | 12.2 | 20.9 | 0.00 | 0.00 | 0.00 | 80 | 1009.8 |
| 20260830145517 | 70 | 0 | 10.4 | 15.6 | 0.00 | 0.00 | 0.00 | 80 | 1009.6 |
| 20260830144517 | 70 | 0 | 9.6 | 16.5 | 0.00 | 0.00 | 0.00 | 79 | 1009.5 |
| 20260830143517 | 71 | 0 | 10.4 | 17.4 | 0.00 | 0.00 | 0.00 | 78 | 1009.4 |
| 20260830142517 | 70 | 0 | 15.6 | 21.7 | 0.00 | 0.00 | 0.00 | 79 | 1009.4 |
| 20260830141537 | 71 | 0 | 11.3 | 17.4 | 0.00 | 0.00 | 0.00 | 77 | 1009.2 |
| 20260830140517 | 72 | 0 | 13.0 | 20.0 | 0.00 | 0.00 | 0.00 | 76 | 1009.2 |
| 20260830135517 | 71 | 0 | 14.8 | 21.7 | 0.00 | 0.00 | 0.00 | 79 | 1009.2 |
| 20260830134537 | 70 | 0 | 11.3 | 19.1 | 0.00 | 0.00 | 0.00 | 79 | 1009.2 |
| 20260830133517 | 70 | 0 | 9.6 | 15.6 | 0.00 | 0.00 | 0.00 | 79 | 1009.0 |
| 20260830132517 | 70 | 0 | 12.2 | 19.1 | 0.00 | 0.00 | 0.00 | 78 | 1008.9 |
| 20260830131517 | 71 | 0 | 11.3 | 17.4 | 0.00 | 0.00 | 0.00 | 77 | 1008.8 |
| 20260830130537 | 72 | 0 | 12.2 | 20.9 | 0.00 | 0.00 | 0.00 | 76 | 1008.8 |
| 20260830125537 | 70 | 0 | 13.0 | 22.6 | 0.00 | 0.00 | 0.00 | 80 | 1008.7 |